User: anonymous   Login
Location: Unspecified
(0.0000°N, 0.0000°E)
Time: 09:58:11
(UTC+02:00)
Language:

Cosmos 407 Rocket - Orbit

View from above orbital plane
View from above orbital plane
View from above satellite
View from above satellite

Ground track
Ground track

The orbit data is extracted from the following two-line orbital elements,

1 05175U 71035B   15242.72051858  .00000091  00000-0  38836-4 0  9996
2 05175 074.0500 336.9645 0030425 346.5742 013.4598 14.37719284320592
Epoch (UTC): 30 August 2015 17:17:32
Eccentricity: 0.0030425
inclination: 74.0500°
perigee height: 744 km
apogee height: 788 km
right ascension of ascending node: 336.9645°
argument of perigee: 346.5742°
revolutions per day: 14.37719284
mean anomaly at epoch: 13.4598°
orbit number at epoch: 32059

The dashed part of the orbit path shows where the satellite is in the earth's shadow,  

DLR